Regional Weather Roundup
Issued by NWS

Home | Current Version | Previous Version | Text Only | Print | Product List | Glossary On
Versions: 1 2 3 4 5 6 7 8 9 10 11 12 13 14 15 16 17 18 19 20 21 22 23 24 25 26 27
000
ASUS45 KBOU 250507
RWRCO

WEATHER ROUNDUP FOR COLORADO
NATIONAL WEATHER SERVICE DENVER/BOULDER CO
1100 PM MDT WED MAY 24 2017

NOTE: "FAIR" INDICATES FEW OR NO CLOUDS BELOW 12000 FEET WITH NO
SIGNIFICANT WEATHER AND/OR OBSTRUCTIONS TO VISIBILITY.

COZ001>005-013-030-031-250600-
...NORTHWEST COLORADO...

CITY           SKY/WX    TMP DP  RH WIND       PRES   REMARKS
CRAIG          FAIR      65  31  28 SW8       29.65S
HAYDEN         MOCLDY    59  30  33 N7        29.69R
MEEKER         FAIR      60  35  39 N3        29.68S
RABBIT EARS PA CLOUDY    45  28  53 SW12G25   29.93F
STEAMBOAT SPGS FAIR      55  35  46 CALM      29.73R
WALDEN           N/A     45  34  65 SE6       29.79F
$$

COZ006>008-011-250600-
...WEST CENTRAL VALLEYS...

CITY           SKY/WX    TMP DP  RH WIND       PRES   REMARKS
GRAND JUNCTION FAIR      73  32  22 NW6       29.60R
MONTROSE       FAIR      60  33  36 SE9       29.71S
EAGLE          MOCLDY    63  36  36 SE9       29.76F
RIFLE          FAIR      74  30  19 SE9       29.64F
DELTA          FAIR      71  29  20 CALM      29.65S
NUCLA          FAIR      72  19  14 SW17G23   29.75S
$$

COZ017>023-064>068-250600-
...SOUTHWEST COLORADO...

CITY           SKY/WX    TMP DP  RH WIND       PRES   REMARKS
DURANGO        FAIR      55  27  34 N7        29.82S
CORTEZ         FAIR      53  35  50 E9        29.77R
PAGOSA SPRINGS FAIR      51  24  36 N3        29.90F
TELLURIDE      FAIR      55  23  29 SE6       30.00S
WOLF CREEK PAS FAIR      43  19  39 SW17G25   30.20F
$$

COZ009-010-012-014-032>034-037-058>063-250600-
...CENTRAL COLORADO...

CITY           SKY/WX    TMP DP  RH WIND       PRES   REMARKS
ASPEN          MOCLDY    60  30  32 SE9       29.83F
BUENA VISTA    FAIR      57  29  34 SW3       29.86F
COPPER MTN     CLOUDY    45  23  42 W26G39    30.09F
BERTHOUD PASS  FAIR      37  28  70 W31G46    30.07S
COTTONWOOD PAS FAIR      55  23  28 W8G20     29.98F
GUNNISON       MOCLDY    59  29  31 CALM      29.85F
KREMMLING      FAIR      55  34  44 W14G20    29.81R
LEADVILLE      CLOUDY    48  25  40 VRB7      29.98R
MONARCH PASS   CLOUDY    43  23  45 W22G30    30.22S
SALIDA         FAIR      62  28  27 SW7       29.91F
SUNLIGHT       MOCLDY    45  27  49 W14G26    30.02F
WILKERSON PASS FAIR      43  27  52 SW17G29   30.07F
$$

COZ069>075-250600-
...SAN LUIS VALLEY/SANGRE DE CRISTO MOUNTAINS...

CITY           SKY/WX    TMP DP  RH WIND       PRES   REMARKS
ALAMOSA        FAIR      50  28  42 SW7       29.88R
DEL NORTE      FAIR      55  24  31 SW3       29.90S
LA VETA PASS   FAIR      46  19  34 MISG      30.13S
SAGUACHE       FAIR      54  25  32 N8        29.88S
$$

COZ035-036-038>040-250600-
...NORTHERN COLORADO FRONT RANGE...

CITY           SKY/WX    TMP DP  RH WIND       PRES   REMARKS
DENVER INTL AP FAIR      66  34  30 S9        29.61S
DMNS CITY PARK   N/A     65  31  27 SE8       29.60S
AURORA         PTCLDY    58  33  39 S12       29.63F
FRONT RANGE AP NOT AVBL
ERIE MUNI ARPT FAIR      58  40  49 S5        29.58F
BOULDER MUN AP FAIR      63  32  31 SW6       29.59S
CENTENNIAL     FAIR      60  33  36 S13       29.64F
BROOMFIELD     NOT AVBL
FORT COLLINS   FAIR      63  40  42 S6        29.57F
LONGMONT       FAIR      59  42  53 SW5       29.59F
$$

COZ041-046-047-076>085-087-088-250600-
...PIKES PEAK/PALMER DIVIDE AND SOUTHERN FOOTHILLS...

CITY           SKY/WX    TMP DP  RH WIND       PRES   REMARKS
COLO. SPRINGS  FAIR      63  34  33 E10       29.71S
A. F. ACADEMY  FAIR      57  32  39 NE7       29.72S
SCHRIEVER AFB  FAIR      61  39  44 NE10      29.72S
CHEYENNE MTN   FAIR      66  26  22 SW6       29.71S
ELLICOTT       FAIR     N/A N/A N/A SE7       29.69S
FALCON         FAIR      56  32  40 W10       29.76F
FORT CARSON    FAIR      63  35  36 CALM      29.69R
LIMON          FAIR      52  42  69 VRB3      29.66F
MONUMENT HILL  FAIR      54  32  43 SW10      29.77S
CANON CITY     NOT AVBL
WALSENBURG     FAIR      59  37  44 SW6       29.73S
TRINIDAD       FAIR      65  31  28 W13       29.72R
$$

COZ042>045-048>051-090-091-250600-
...NORTHEAST COLORADO...

CITY           SKY/WX    TMP DP  RH WIND       PRES   REMARKS
GREELEY ARPT   FAIR      61  49  64 CALM      29.55F
AKRON          FAIR      65  41  41 S20G30    29.57F
BURLINGTON     FAIR      60  46  59 S17       29.61S
WRAY           FAIR      63  43  48 S15G21    29.54S
YUMA           FAIR      61  36  39 S18       29.55F
STERLING       NOT AVBL
HOLYOKE        NOT AVBL
FORT MORGAN    FAIR      64  42  44 S13       29.56S
$$

COZ086-089-092>099-250600-
...SOUTHEAST COLORADO...

CITY           SKY/WX    TMP DP  RH WIND       PRES   REMARKS
PUEBLO         FAIR      68  38  33 CALM      29.60R
LA JUNTA       FAIR      72  41  32 S13       29.57R
LAMAR          FAIR      61  46  57 E13       29.57S
SPRINGFIELD      N/A     56  44  64 S6        29.65S
$$




USA.gov is the U.S. government's official web portal to all federal, state and local government web resources and services.